Clinton-Sherman, OK

1:18 PM CDT on May 27, 2017 (GMT -0500)
Clinton-Sherman

Weather History for KCSM - December, 2012

Change the Weather History Date:

Monday, December 17, 2012

  Actual Average Record
Temperature  
Mean Temperature 42 °F -  
Max Temperature 54 °F 47 °F 68 °F (2002)
Min Temperature 30 °F 28 °F 6 °F (2016)
Degree Days  
Heating Degree Days 23    
Moisture  
Dew Point 32 °F    
Average Humidity 79    
Maximum Humidity 100    
Minimum Humidity 47    
Precipitation  
Precipitation 0.00 in - - ()
Sea Level Pressure  
Sea Level Pressure 29.85 in    
Wind  
Wind Speed 10 mph (WSW)    
Max Wind Speed 17 mph    
Max Gust Speed -    
Visibility 7 miles    
Events Fog    
Averages and records for this station are not official NWS values.
T = Trace of Precipitation, MM = Missing Value Source: NWS Daily Summary

Daily Weather History Graph

Daily Weather History Graph

Search for Another Location

Airport or City:

Trip Planner

Search our weather history database for the weather conditions in past years. The results will help you decide how hot, cold, wet, or windy it might be!

Date:

Astronomy

Dec. 17, 2012 Rise Set
Actual Time 7:39 AM CST 5:26 PM CST
Civil Twilight 7:11 AM CST 5:54 PM CST
Nautical Twilight 6:39 AM CST 6:26 PM CST
Astronomical Twilight 6:08 AM CST 6:57 PM CST
Moon 10:58 AM CST (12/17) 10:39 PM CST (12/17)
Length of Visible Light 10h 43m
Length of Day
9h 46m
Waxing Crescent, 25% of the Moon is Illuminated
Dec 17
Waxing Crescent
Dec 19
First Quarter
Dec 28
Full
Jan 4
Last Quarter
Jan 11
New

Hourly Weather History & Observations

Time (CST) Temp. Windchill Dew Point Humidity Pressure Visibility Wind Dir Wind Speed Gust Speed Precip Events Conditions
12:53 AM 34.0 °F 28.0 °F 32.0 °F 92% 29.82 in 6.0 mi NNW 6.9 mph - N/A   Clear
1:53 AM 34.0 °F 27.2 °F 32.0 °F 92% 29.84 in 7.0 mi WNW 8.1 mph - 0.00 in   Clear
2:53 AM 34.0 °F 26.0 °F 30.9 °F 89% 29.86 in 6.0 mi NW 10.4 mph - N/A   Clear
3:53 AM 33.1 °F 25.5 °F 30.9 °F 92% 29.86 in 7.0 mi NW 9.2 mph - N/A   Clear
4:53 AM 32.0 °F 25.6 °F 30.0 °F 92% 29.87 in 7.0 mi WNW 6.9 mph - N/A   Clear
5:53 AM 32.0 °F 24.8 °F 30.0 °F 92% 29.87 in 7.0 mi West 8.1 mph - N/A   Clear
6:53 AM 30.9 °F 22.2 °F 28.9 °F 92% 29.88 in 7.0 mi West 10.4 mph - N/A   Clear
7:53 AM 32.0 °F 23.6 °F 30.0 °F 92% 29.90 in 5.0 mi West 10.4 mph - N/A   Clear
8:53 AM 33.1 °F 23.4 °F 30.0 °F 89% 29.90 in 5.0 mi WSW 13.8 mph - N/A   Clear
9:03 AM 32.0 °F 21.2 °F 30.2 °F 93% 29.89 in 2.5 mi West 16.1 mph - N/A   Partly Cloudy
9:07 AM 32.0 °F 21.2 °F 30.2 °F 93% 29.89 in 1.0 mi WSW 16.1 mph - N/A   Mist
9:10 AM 32.0 °F 22.1 °F 30.2 °F 93% 29.89 in 0.5 mi WSW 13.8 mph - N/A Fog Fog
9:42 AM 35.6 °F 26.6 °F 33.8 °F 93% 29.90 in 1.0 mi West 13.8 mph - N/A   Mist
9:50 AM 35.6 °F 27.5 °F 35.6 °F 100% 29.90 in 3.0 mi West 11.5 mph - N/A   Mostly Cloudy
9:53 AM 37.0 °F 29.3 °F 35.1 °F 93% 29.91 in 3.0 mi West 11.5 mph - N/A   Scattered Clouds
10:53 AM 46.0 °F 42.5 °F 37.9 °F 73% 29.91 in 10.0 mi West 6.9 mph - N/A   Clear
11:53 AM 50.0 °F - 37.0 °F 61% 29.89 in 10.0 mi WSW 5.8 mph - N/A   Clear
12:53 PM 51.1 °F - 34.0 °F 52% 29.84 in 10.0 mi South 4.6 mph - N/A   Clear
1:53 PM 53.1 °F - 34.0 °F 48% 29.81 in 10.0 mi SSW 11.5 mph - N/A   Clear
2:53 PM 54.0 °F - 34.0 °F 47% 29.80 in 10.0 mi SSW 15.0 mph - N/A   Clear
3:53 PM 53.1 °F - 34.0 °F 48% 29.80 in 10.0 mi SSW 17.3 mph - N/A   Clear
6:53 PM 44.1 °F 37.7 °F 32.0 °F 63% 29.79 in 10.0 mi South 12.7 mph - N/A   Clear
7:53 PM 41.0 °F 34.7 °F 30.9 °F 67% 29.80 in 10.0 mi South 10.4 mph - N/A   Clear
8:53 PM 39.9 °F 32.9 °F 30.9 °F 70% 29.79 in 10.0 mi South 11.5 mph - N/A   Clear
9:53 PM 39.9 °F 31.8 °F 30.9 °F 70% 29.77 in 10.0 mi South 15.0 mph - N/A   Clear
10:53 PM 39.0 °F 30.3 °F 30.0 °F 70% 29.76 in 10.0 mi SSW 16.1 mph - N/A   Clear
11:53 PM 37.0 °F 28.1 °F 28.0 °F 70% 29.75 in 10.0 mi SSW 15.0 mph - N/A   Clear